This demonstration page uses our WeatherBlox Daily Observations layout. Learn more.

36.17497, -115.13722

Hourly Observations for January 16, 2018

Temp ( °F °C ) Dew Point ( °F °C ) Humidity (%) Winds ( mph kmh ) Pressure ( in mb ) Visibility ( mi km ) Precip ( " mm )
12:53 am 00:53 Clear 52 11.1 41 5 66 66 WNW 3 6 30.18 1022 10 16.0934 0 0
1:53 am 01:53 Clear 49 9.4 41 5 74 74 NNW 7 11 30.18 1022 10 16.0934 0 0
2:53 am 02:53 Clear 51 10.6 39 3.9 64 64 WSW 5 7 30.19 1022 10 16.0934 0 0
3:53 am 03:53 Clear 48 8.9 39 3.9 71 71 Calm 30.19 1022 10 16.0934 0 0
4:53 am 04:53 Clear 48 8.9 38 3.3 68 68 Calm 30.2 1023 10 16.0934 0 0
5:53 am 05:53 Clear 47 8.3 38 3.3 71 71 N 7 11 30.22 1023 10 16.0934 0 0
6:53 am 06:53 Sunny 47 8.3 37 2.8 69 69 W 5 7 30.24 1024 10 16.0934 0 0
7:53 am 07:53 Sunny 49 9.4 39 3.9 69 69 NNE 5 7 30.24 1024 10 16.0934 0 0
8:53 am 08:53 Sunny 52 11.1 39 3.9 61 61 Calm 30.26 1025 10 16.0934 0 0
9:53 am 09:53 Partly Cloudy 55 12.8 40 4.4 57 57 SE 5 7 30.27 1025 10 16.0934 0 0
10:53 am 10:53 Sunny 58 14.4 36 2.2 44 44 S 5 7 30.27 1025 10 16.0934 0 0
11:53 am 11:53 Partly Cloudy 58 14.4 35 1.7 42 42 SSE 3 6 30.24 1024 10 16.0934 0 0
12:53 pm 12:53 Mostly Cloudy 59 15 37 2.8 44 44 Calm 30.22 1023 10 16.0934 0 0
1:53 pm 13:53 Sunny 61 16.1 34 1.1 36 36 SW 5 7 30.21 1023 10 16.0934 0 0
2:53 pm 14:53 Sunny 63 17.2 32 0 31 31 Calm 30.21 1023 10 16.0934 0 0
3:53 pm 15:53 Sunny 63 17.2 33 0.6 33 33 Calm 30.22 1024 10 16.0934 0 0
4:53 pm 16:53 Clear 61 16.1 33 0.6 35 35 Calm 30.22 1023 10 16.0934 0 0
5:53 pm 17:53 Clear 59 15 33 0.6 38 38 Calm 30.23 1024 10 16.0934 0 0
6:53 pm 18:53 Clear 55 12.8 36 2.2 49 49 NW 5 7 30.25 1025 10 16.0934 0 0
7:53 pm 19:53 Clear 52 11.1 38 3.3 59 59 NNW 3 6 30.26 1025 10 16.0934 0 0
8:53 pm 20:53 Clear 51 10.6 38 3.3 61 61 NW 7 11 30.26 1025 10 16.0934 0 0
9:53 pm 21:53 Clear 50 10 38 3.3 63 63 NNW 5 7 30.26 1025 10 16.0934 0 0
10:53 pm 22:53 Clear 49 9.4 38 3.3 66 66 WNW 7 11 30.27 1025 10 16.0934 0 0
11:53 pm 23:53 Clear 50 10 37 2.8 61 61 WNW 7 11 30.26 1025 10 16.0934 0 0

Powered by AerisWeather